N264KA LOWI-LOWZ

Flight info

Callsign N264KA
Flight time 0h 20m
Altitude 4500
Route LOWI DCT LOIK DCT LOIJ DCT VP067 DCT LOWZ
Aircraft C525/L-SDFGRWY/S

Departure

Time 2026-04-17 10:48
Airport Innsbruck Airport (LOWI)

Arrival

Time 2026-04-17 11:08
Airport Zell am See Airfield (LOWZ)
Time Latitude Longitude Altitude Speed Heading
2026-04-17 10:38 47.25722 11.34415 1911 ft 0 kts 26°
2026-04-17 10:45 47.25735 11.34431 1911 ft 5 kts 51°
2026-04-17 10:45 47.25751 11.34518 1911 ft 11 kts 65°
2026-04-17 10:45 47.25812 11.34509 1911 ft 9 kts 298°
2026-04-17 10:46 47.25806 11.34394 1911 ft 14 kts 261°
2026-04-17 10:46 47.25789 11.34220 1914 ft 18 kts 259°
2026-04-17 10:46 47.25769 11.34024 1918 ft 20 kts 271°
2026-04-17 10:46 47.25821 11.33853 1923 ft 17 kts 307°
2026-04-17 10:47 47.25894 11.33709 1928 ft 16 kts 319°
2026-04-17 10:47 47.25956 11.33801 1925 ft 32 kts 81°
2026-04-17 10:47 47.26030 11.34502 1912 ft 102 kts 79°
2026-04-17 10:47 47.26163 11.35654 2251 ft 123 kts 78°
2026-04-17 10:48 47.26309 11.36900 2853 ft 130 kts 78°
2026-04-17 10:48 47.26185 11.38218 3472 ft 139 kts 117°
2026-04-17 10:48 47.25550 11.39411 3898 ft 160 kts 126°
2026-04-17 10:48 47.24818 11.40788 4221 ft 181 kts 122°
2026-04-17 10:49 47.24412 11.42595 4418 ft 201 kts 90°
2026-04-17 10:49 47.24768 11.44709 4430 ft 223 kts 68°
2026-04-17 10:49 47.25355 11.46931 4433 ft 243 kts 67°
2026-04-17 10:49 47.25999 11.49301 4454 ft 255 kts 67°
2026-04-17 10:50 47.26677 11.51773 4419 ft 263 kts 67°
2026-04-17 10:50 47.27356 11.54258 4374 ft 267 kts 66°
2026-04-17 10:50 47.28066 11.56755 4325 ft 264 kts 66°
2026-04-17 10:50 47.28767 11.59249 4258 ft 262 kts 66°
2026-04-17 10:51 47.29500 11.61691 4239 ft 259 kts 61°
2026-04-17 10:51 47.30545 11.63827 4197 ft 257 kts 46°
2026-04-17 10:51 47.31809 11.65660 4180 ft 254 kts 44°
2026-04-17 10:51 47.33069 11.67506 4118 ft 254 kts 45°
2026-04-17 10:52 47.34285 11.69378 4051 ft 254 kts 47°
2026-04-17 10:52 47.35448 11.71360 4069 ft 251 kts 51°
2026-04-17 10:52 47.36483 11.73380 4159 ft 246 kts 54°
2026-04-17 10:52 47.37459 11.75440 4021 ft 252 kts 56°
2026-04-17 10:53 47.38485 11.77578 3877 ft 255 kts 54°
2026-04-17 10:53 47.39529 11.79696 3810 ft 255 kts 54°
2026-04-17 10:53 47.40548 11.81824 3827 ft 251 kts 55°
2026-04-17 10:53 47.41523 11.83945 3851 ft 248 kts 56°
2026-04-17 10:54 47.42453 11.86081 3879 ft 246 kts 58°
2026-04-17 10:54 47.43329 11.88230 3937 ft 243 kts 59°
2026-04-17 10:54 47.44192 11.90355 3947 ft 243 kts 58°
2026-04-17 10:54 47.45063 11.92500 3957 ft 243 kts 59°
2026-04-17 10:55 47.45923 11.94664 3931 ft 244 kts 59°
2026-04-17 10:55 47.46755 11.96853 3772 ft 250 kts 60°
2026-04-17 10:55 47.47569 11.99126 3785 ft 248 kts 63°
2026-04-17 10:55 47.48329 12.01385 3900 ft 242 kts 64°
2026-04-17 10:56 47.48725 12.03763 4079 ft 237 kts 86°
2026-04-17 10:56 47.48659 12.06165 4277 ft 231 kts 93°
2026-04-17 10:56 47.48512 12.08486 4458 ft 228 kts 94°
2026-04-17 10:56 47.48502 12.10852 4508 ft 229 kts 82°
2026-04-17 10:57 47.48820 12.13144 4512 ft 232 kts 75°
2026-04-17 10:57 47.49256 12.15475 4520 ft 235 kts 73°
2026-04-17 10:57 47.49723 12.17805 4515 ft 238 kts 72°
2026-04-17 10:57 47.50203 12.20153 4520 ft 240 kts 72°
2026-04-17 10:58 47.50687 12.22518 4517 ft 242 kts 72°
2026-04-17 10:58 47.51049 12.24957 4507 ft 244 kts 83°
2026-04-17 10:58 47.51153 12.27468 4501 ft 246 kts 86°
2026-04-17 10:58 47.51195 12.29961 4501 ft 246 kts 88°
2026-04-17 10:59 47.51219 12.32532 4503 ft 246 kts 88°
2026-04-17 10:59 47.51237 12.35367 4502 ft 247 kts 88°
2026-04-17 10:59 47.51252 12.38017 4502 ft 247 kts 88°
2026-04-17 10:59 47.51265 12.40556 4508 ft 246 kts 88°
2026-04-17 11:00 47.51257 12.43084 4510 ft 247 kts 92°
2026-04-17 11:00 47.50868 12.45605 4522 ft 248 kts 104°
2026-04-17 11:00 47.50275 12.47975 4513 ft 248 kts 111°
2026-04-17 11:00 47.49559 12.50315 4515 ft 249 kts 113°
2026-04-17 11:01 47.48808 12.52639 4513 ft 249 kts 114°
2026-04-17 11:01 47.48056 12.54933 4520 ft 249 kts 114°
2026-04-17 11:01 47.47314 12.57231 4523 ft 248 kts 112°
2026-04-17 11:01 47.46683 12.59594 4526 ft 247 kts 109°
2026-04-17 11:02 47.46081 12.61995 4523 ft 248 kts 108°
2026-04-17 11:02 47.45527 12.64411 4521 ft 249 kts 104°
2026-04-17 11:02 47.45121 12.66889 4512 ft 249 kts 101°
2026-04-17 11:02 47.44757 12.69354 4511 ft 249 kts 101°
2026-04-17 11:03 47.44396 12.71864 4517 ft 248 kts 101°
2026-04-17 11:03 47.44041 12.74351 4515 ft 248 kts 101°
2026-04-17 11:03 47.43686 12.76824 4513 ft 248 kts 100°
2026-04-17 11:03 47.43321 12.79347 4444 ft 252 kts 102°
2026-04-17 11:04 47.42526 12.81646 4309 ft 260 kts 132°
2026-04-17 11:04 47.40962 12.82983 4188 ft 266 kts 163°
2026-04-17 11:04 47.39116 12.82942 4050 ft 269 kts 194°
2026-04-17 11:04 47.37427 12.81936 3797 ft 252 kts 200°
2026-04-17 11:05 47.35848 12.81228 3734 ft 227 kts 196°
2026-04-17 11:05 47.34387 12.80575 3695 ft 210 kts 196°
2026-04-17 11:05 47.33024 12.80011 3650 ft 198 kts 195°
2026-04-17 11:05 47.31733 12.79498 3613 ft 188 kts 195°
2026-04-17 11:06 47.30587 12.78705 3591 ft 173 kts 220°
2026-04-17 11:06 47.29924 12.77499 3578 ft 136 kts 256°
2026-04-17 11:06 47.29713 12.76301 3452 ft 113 kts 259°
2026-04-17 11:06 47.29208 12.75454 3165 ft 122 kts 187°
2026-04-17 11:07 47.28546 12.76017 2985 ft 123 kts 103°
2026-04-17 11:07 47.28760 12.77126 2816 ft 110 kts 63°
2026-04-17 11:07 47.28992 12.78148 2607 ft 104 kts 74°
2026-04-17 11:07 47.29159 12.79102 2517 ft 72 kts 78°
2026-04-17 11:08 47.29216 12.79413 2515 ft 14 kts 25°
2026-04-17 11:08 47.29269 12.79400 2515 ft 0 kts 346°
2026-04-17 11:08 47.29271 12.79399 2515 ft 1 kts 345°
2026-04-17 11:09 47.29287 12.79365 2516 ft 7 kts 255°
2026-04-17 11:09 47.29268 12.79251 2516 ft 15 kts 256°
2026-04-17 11:09 47.29239 12.79079 2517 ft 18 kts 256°
2026-04-17 11:10 47.29211 12.78810 2520 ft 0 kts 256°